Simultaneous Nadir Overpasses (SNOs) Predictions

Prediction of SNOs between GOES-17 and AQUA Satellite Orbit:

Table of predicted SNOs for the next 14.0 days since TLE Epoch: 2/7/2020
Index Date Time (GOES-17) GOES-17 Lat,Lon AQUA Lat,Lon Distance(km) Time Diff (sec)
1 02/08/2020 10:30:42 0.05,-137.22 -0.62,-134.19 345.08 80
2 02/08/2020 22:52:07 -0.05,-137.22 -0.48,-139.39 246.07 80
3 02/10/2020 22:42:37 -0.05,-137.21 0.13,-136.43 89.34 80
4 02/11/2020 11:03:51 0.05,-137.22 1.01,-141.58 496.41 80
5 02/12/2020 22:30:27 -0.05,-137.21 0.75,-133.48 424.28 80
6 02/13/2020 10:51:43 0.05,-137.21 0.34,-138.64 161.64 80
7 02/15/2020 10:36:53 0.05,-137.20 -0.27,-135.68 172.64 80
8 02/15/2020 22:58:16 -0.06,-137.18 -0.87,-140.86 419.03 80
9 02/17/2020 22:46:06 -0.06,-137.16 -0.25,-137.91 85.46 80
10 02/19/2020 22:36:37 -0.07,-137.14 0.38,-134.96 247.68 80
11 02/20/2020 10:57:52 0.07,-137.14 0.72,-140.11 338.66 80




NCC Satellite Simultaneous Nadir Overpasses (SNOs) Prediction Service
